Regional Weather Roundup
Issued by NWS

Home | Current Version | Previous Version | Text Only | Print | Product List | Glossary Off
Versions: 1 2 3 4 5 6 7 8 9 10 11 12 13 14 15 16 17 18 19 20 21 22 23 24 25 26 27 28 29 30 31 32 33 34 35 36 37 38 39 40 41 42 43 44 45 46 47 48 49 50

000
ASUS43 KLSX 261559
RWRMO

WEATHER SUMMARY FOR MISSOURI
NATIONAL WEATHER SERVICE SPRINGFIELD MO
1100 AM CDT THU MAR 26 2015

NOTE: "FAIR" INDICATES FEW OR NO CLOUDS BELOW 12,000 FEET WITH NO
       SIGNIFICANT WEATHER AND/OR OBSTRUCTIONS TO VISIBILITY.
       CURRENT SKY AND/OR WEATHER CONDITIONS ARE NOT AVAILABLE FOR
       CHILLICOTHE AND FARMINGTON.

MOZ001>031-035>038-043-044-053-054-261700-
...NORTHERN AND WESTERN MISSOURI...

CITY           SKY/WX    TMP DP  RH WIND       PRES   REMARKS
KANSAS CTY INT MOSUNNY   42  28  57 N15       30.21F
KANSAS C DTWN  SUNNY     45  27  49 N14G20    30.21F
LEE`S SUMMIT   SUNNY     42  24  49 N13       30.20F
ST JOSEPH      SUNNY     41  28  60 N9        30.23F
CHILLICOTHE      N/A     42  26  53 N9G22     30.20F
KIRKSVILLE     SUNNY     41  26  55 NW15      30.15F

$$
MOZ066>068-077>081-088>096-101>105-261700-
...SOUTHWEST MISSOURI...

CITY           SKY/WX    TMP DP  RH WIND       PRES   REMARKS
SPRINGFIELD    PTSUNNY   42  31  64 N20       30.12S
JOPLIN         MOSUNNY   45  32  60 N17G24    30.18R

$$
MOZ032>034-039>042-045>050-055>058-069>072-261700-
...CENTRAL MISSOURI...

CITY           SKY/WX    TMP DP  RH WIND       PRES   REMARKS
COLUMBIA       CLOUDY    39  29  67 N16       30.14S
JEFFERSON CITY CLOUDY    41  28  60 NW13      30.15F
ROLLA          CLOUDY    38  29  70 MISG      30.10S
SEDALIA        MOSUNNY   42  29  59 N18       30.18S
OSAGE BEACH    CLOUDY    39  28  65 N8        30.15S

$$
MOZ051-052-059>065-261700-
...EAST CENTRAL MISSOURI...

CITY           SKY/WX    TMP DP  RH WIND       PRES   REMARKS
ST LOUIS INTL  CLOUDY    41  30  65 N14       30.09S
SPIRIT OF STL  CLOUDY    41  29  62 N15       30.10S
ST CHARLES     PTSUNNY   41  30  65 N15       30.09F

$$
MOZ072>076-082>087-097>100-106>115-261700-
...SOUTH CENTRAL AND SOUTHEAST MISSOURI...

CITY           SKY/WX    TMP DP  RH WIND       PRES   REMARKS
CAPE GIRARDEAU CLOUDY    43  40  89 N21G26    30.02R
FARMINGTON     CLOUDY    37  32  81 N12G18    30.10R WCI  30
POPLAR BLUFF   LGT RAIN  45  40  82 N18       30.03R
WEST PLAINS    CLOUDY    40  36  86 MISG      30.08R

$$


USA.gov is the U.S. government's official web portal to all federal, state and local government web resources and services.